Погода в Лопазном

Россия / Тюменская область     55°28′44″N   70°25′23″E
темп.,
°C
ветер,
м/с
пор.,
м/с
влажн.,
%
обл.,
%
осадки,
мм/ч
давл.,
гПа
погр.,
м
20 апреля, вт
вт2023:00−5ссв26485 0.0 1032257
02:00−5ссв24500 0.0 1033270
05:00−6ссв11550 0.0 103432
08:00−4сз23422 0.0 1034987
11:00−1зсз34312 0.0 10321219
14:00+2з56275 0.0 10291413
17:00+3з68325 0.0 10281492
20:00−1зюз5115451 0.0 1027207
21 апреля, ср
ср2123:000з6155691 0.0 1025348
02:00+1з6146285 0.0 1023378
05:00−1сз410795 0.0 1025238
08:00+2с577963 0.0 1026619
11:00+5ссз67515 0.0 10281245
14:00+7с78415 0.0 10291632
17:00+7ссв68395 0.0 10311593
20:00+3св48585 0.0 1034193
22 апреля, чт
чт2223:000всв48700 0.0 1037290
02:00−1в25784 0.0 1039159
05:00−2в36805 0.0 1041185
08:00+1юв45520 0.0 1043704
11:00+5ююв44390 0.0 10441154
14:00+7ююв55345 0.0 10431249
17:00+8ю44330 0.0 10431433
20:00+4ююв36500 0.0 1043102
23 апреля, пт
пт2323:00+2ююв4959100 0.0 1043174
02:00+1ююв411645 0.0 1043228
05:000ююв41267100 0.0 1043238
08:00+4ю61053100 0.0 1043489
11:00+8ю674057 0.0 10421178
14:00+10ю67334 0.0 10401565
17:00+11ю563033 0.0 10391668
20:00+6юв4846100 0.0 1038141
24 апреля, сб
сб2423:00+5ююв51350100 0.0 1037294
02:00+4ююв5125496 0.0 1036301
05:00+2ююв5116290 0.0 1036216
08:00+6ююв61047100 0.0 1035408
11:00+10ю6834100 0.0 10331141
14:00+12ю6728100 0.0 10311774
17:00+11ю5630100 0.0 10301656
20:00+8юв4942100 0.0 1029205